H1 CPF 2 NER 2021 6 23 9 174 01 glonass121 H2 1000702 9121 36401 2021 6 23 0 0 0 2021 6 26 23 45 0 900 1 1 0 0 0 1 H9 10 0 59388 0.00000 0 -5982647.418 -13865629.588 20565230.679 10 0 59388 900.00000 0 -5583969.030 -16273553.516 18850813.786 10 0 59388 1800.00000 0 -5403742.854 -18473572.505 16770855.801 10 0 59388 2700.00000 0 -5413516.786 -20405875.852 14365947.575 10 0 59388 3600.00000 0 -5574658.476 -22019148.361 11682893.128 10 0 59388 4500.00000 0 -5840190.692 -23272538.909 8773794.327 10 0 59388 5400.00000 0 -6156980.034 -24137205.451 5695040.169 10 0 59388 6300.00000 0 -6468186.219 -24597374.750 2506220.062 10 0 59388 7200.00000 0 -6715868.897 -24650875.392 -731018.336 10 0 59388 8100.00000 0 -6843643.025 -24309124.197 -3954145.648 10 0 59388 9000.00000 0 -6799272.242 -23596568.383 -7100940.227 10 0 59388 9900.00000 0 -6537092.665 -22549607.807 -10110669.043 10 0 59388 10800.00000 0 -6020166.619 -21215042.569 -12925238.960 10 0 59388 11700.00000 0 -5222076.962 -19648110.239 -15490298.040 10 0 59388 12600.00000 0 -4128287.301 -17910193.426 -17756267.322 10 0 59388 13500.00000 0 -2737010.911 -16066291.564 -19679284.906 10 0 59388 14400.00000 0 -1059550.946 -14182360.233 -21222045.497 10 0 59388 15300.00000 0 879904.172 -12322626.784 -22354520.195 10 0 59388 16200.00000 0 3045024.359 -10546992.132 -23054543.177 10 0 59388 17100.00000 0 5388592.851 -8908625.344 -23308253.902 10 0 59388 18000.00000 0 7854223.931 -7451850.325 -23110385.562 10 0 59388 18900.00000 0 10378475.722 -6210412.391 -22464392.956 10 0 59388 19800.00000 0 12893273.630 -5206197.495 -21382415.402 10 0 59388 20700.00000 0 15328546.443 -4448458.803 -19885073.115 10 0 59388 21600.00000 0 17614967.420 -3933584.599 -18001098.411 10 0 59388 22500.00000 0 19686687.209 -3645419.206 -15766806.219 10 0 59388 23400.00000 0 21483944.435 -3556125.492 -13225411.728 10 0 59388 24300.00000 0 22955443.873 -3627554.334 -10426206.355 10 0 59388 25200.00000 0 24060400.745 -3813064.517 -7423606.560 10 0 59388 26100.00000 0 24770162.951 -4059716.569 -4276093.403 10 0 59388 27000.00000 0 25069340.448 -4310747.237 -1045063.597 10 0 59388 27900.00000 0 24956391.770 -4508218.303 2206384.557 10 0 59388 28800.00000 0 24443640.943 -4595725.198 5414704.887 10 0 59388 29700.00000 0 23556722.886 -4521047.549 8517169.922 10 0 59388 30600.00000 0 22333480.346 -4238625.966 11453122.991 10 0 59388 31500.00000 0 20822359.624 -3711756.729 14165188.524 10 0 59388 32400.00000 0 19080374.283 -2914408.398 16600414.398 10 0 59388 33300.00000 0 17170724.873 -1832581.017 18711321.900 10 0 59388 34200.00000 0 15160177.535 -465148.869 20456841.159 10 0 59388 35100.00000 0 13116314.286 1175849.501 21803113.088 10 0 59388 36000.00000 0 11104772.713 3065486.156 22724142.129 10 0 59388 36900.00000 0 9186592.467 5166771.046 23202287.748 10 0 59388 37800.00000 0 7415780.359 7431995.640 23228586.527 10 0 59388 38700.00000 0 5837195.544 9804535.031 22802900.383 10 0 59388 39600.00000 0 4484841.830 12221031.453 21933890.187 10 0 59388 40500.00000 0 3380636.055 14613866.702 20638817.604 10 0 59388 41400.00000 0 2533700.824 16913819.525 18943181.194 10 0 59388 42300.00000 0 1940207.573 19052796.888 16880195.924 10 0 59388 43200.00000 0 1583772.698 20966525.900 14490127.852 10 0 59388 44100.00000 0 1436386.536 22597095.479 11819498.203 10 0 59388 45000.00000 0 1459833.136 23895243.623 8920173.123 10 0 59388 45900.00000 0 1607538.788 24822297.323 5848357.122 10 0 59388 46800.00000 0 1826770.097 25351686.733 2663509.559 10 0 59388 47700.00000 0 2061088.492 25469972.998 -572795.336 10 0 59388 48600.00000 0 2252958.121 25177349.153 -3798043.789 10 0 59388 49500.00000 0 2346398.170 24487595.019 -6949971.804 10 0 59388 50400.00000 0 2289569.377 23427489.201 -9967746.907 10 0 59388 51300.00000 0 2037187.377 22035703.157 -12793121.317 10 0 59388 52200.00000 0 1552662.799 20361223.131 -15371536.114 10 0 59388 53100.00000 0 809879.243 18461364.702 -17653156.839 10 0 59388 54000.00000 0 -205465.156 16399460.958 -19593822.253 10 0 59388 54900.00000 0 -1495009.245 14242318.446 -21155889.392 10 0 59388 55800.00000 0 -3047410.282 12057544.483 -22308959.545 10 0 59388 56700.00000 0 -4838570.841 9910854.717 -23030471.763 10 0 59388 57600.00000 0 -6832404.675 7863470.922 -23306152.356 10 0 59388 58500.00000 0 -8982113.081 5969715.808 -23130311.043 10 0 59388 59400.00000 0 -11231922.291 4274904.098 -22505976.762 10 0 59388 60300.00000 0 -13519213.232 2813617.539 -21444868.671 10 0 59388 61200.00000 0 -15776958.061 1608436.462 -19967200.602 10 0 59388 62100.00000 0 -17936364.470 669182.031 -18101320.207 10 0 59388 63000.00000 0 -19929619.040 -7297.454 -15883187.114 10 0 59388 63900.00000 0 -21692615.480 -436785.375 -13355697.782 10 0 59388 64800.00000 0 -23167553.076 -646813.360 -10567868.047 10 0 59388 65700.00000 0 -24305294.917 -675271.441 -7573887.761 10 0 59388 66600.00000 0 -25067384.580 -568569.726 -4432065.210 10 0 59388 67500.00000 0 -25427633.767 -379429.437 -1203681.984 10 0 59388 68400.00000 0 -25373211.270 -164397.828 2048218.454 10 0 59388 69300.00000 0 -24905184.793 18805.759 5260083.125 10 0 59388 70200.00000 0 -24038490.934 113997.560 8369116.068 10 0 59388 71100.00000 0 -22801333.486 69172.723 11314531.713 10 0 59388 72000.00000 0 -21234035.388 -161031.033 14038767.794 10 0 59388 72900.00000 0 -19387393.593 -613157.063 16488631.544 10 0 59388 73800.00000 0 -17320607.818 -1313135.585 18616354.652 10 0 59388 74700.00000 0 -15098872.631 -2274949.483 20380534.759 10 0 59388 75600.00000 0 -12790736.489 -3499817.606 21746944.302 10 0 59388 76500.00000 0 -10465340.877 -4975930.285 22689190.899 10 0 59388 77400.00000 0 -8189657.140 -6678747.569 23189217.004 10 0 59388 78300.00000 0 -6025837.688 -8571846.493 23237630.469 10 0 59388 79200.00000 0 -4028792.407 -10608280.207 22833861.380 10 0 59388 80100.00000 0 -2244090.575 -12732390.229 21986144.230 10 0 59388 81000.00000 0 -706273.913 -14881994.395 20711328.069 10 0 59388 81900.00000 0 562351.718 -16990857.816 19034520.538 10 0 59388 82800.00000 0 1552398.979 -18991342.900 16988574.737 10 0 59388 83700.00000 0 2267531.414 -20817127.796 14613430.637 10 0 59388 84600.00000 0 2724043.930 -22405880.524 11955325.090 10 0 59388 85500.00000 0 2949912.464 -23701778.449 9065886.697 10 0 59389 0.00000 0 2983355.724 -24657769.896 6001133.511 10 0 59389 900.00000 0 2870971.671 -25237485.422 2820392.471 10 0 59389 1800.00000 0 2665528.125 -25416722.103 -414837.941 10 0 59389 2700.00000 0 2423501.179 -25184439.505 -3642062.102 10 0 59389 3600.00000 0 2202464.202 -24543229.388 -6798976.330 10 0 59389 4500.00000 0 2058436.507 -23509239.504 -9824651.492 10 0 59389 5400.00000 0 2043301.712 -22111555.893 -12660688.029 10 0 59389 6300.00000 0 2202402.880 -20391069.061 -15252322.945 10 0 59389 7200.00000 0 2572414.161 -18398870.410 -17549469.146 10 0 59389 8100.00000 0 3179577.457 -16194244.092 -19507668.794 10 0 59389 9000.00000 0 4038377.932 -13842335.644 -21088943.748 10 0 59389 9900.00000 0 5150714.529 -11411591.951 -22262527.658 10 0 59389 10800.00000 0 6505601.788 -8971076.322 -23005466.200 10 0 59389 11700.00000 0 8079417.893 -6587767.831 -23303073.851 10 0 59389 12600.00000 0 9836691.621 -4323955.198 -23149237.710 10 0 59389 13500.00000 0 11731398.938 -2234832.075 -22546561.274 10 0 59389 14400.00000 0 13708718.778 -366393.083 -21506343.539 10 0 59389 15300.00000 0 15707178.150 1246281.688 -20048391.569 10 0 59389 16200.00000 0 17661099.917 2580281.411 -18200667.583 10 0 59389 17100.00000 0 19503253.054 3625604.767 -15998774.768 10 0 59389 18000.00000 0 21167595.503 4385352.981 -13485289.301 10 0 59389 18900.00000 0 22591994.719 4875365.846 -10708949.481 10 0 59389 19800.00000 0 23720810.632 5123314.567 -7723716.150 10 0 59389 20700.00000 0 24507230.452 5167288.593 -4587722.045 10 0 59389 21600.00000 0 24915254.439 5053935.891 -1362130.533 10 0 59389 22500.00000 0 24921245.987 4836235.880 1890073.112 10 0 59389 23400.00000 0 24514977.786 4571000.834 5105332.568 10 0 59389 24300.00000 0 23700127.428 4316213.933 8220786.852 10 0 59389 25200.00000 0 22494199.783 4128319.719 11175524.862 10 0 59389 26100.00000 0 20927878.579 4059585.101 13911800.795 10 0 59389 27000.00000 0 19043834.653 4155645.930 16376184.118 10 0 59389 27900.00000 0 16895042.057 4453346.012 18520619.496 10 0 59389 28800.00000 0 14542674.683 4978962.242 20303374.273 10 0 59389 29700.00000 0 12053673.902 5746892.362 21689854.233 10 0 59389 30600.00000 0 9498091.499 6758861.310 22653271.571 10 0 59389 31500.00000 0 6946321.254 8003679.286 23175152.686 10 0 59389 32400.00000 0 4466336.318 9457560.671 23245677.186 10 0 59389 33300.00000 0 2121048.322 11084988.825 22863843.315 10 0 59389 34200.00000 0 -34101.900 12840088.527 22037458.669 10 0 59389 35100.00000 0 -1953223.024 14668446.675 20782958.682 10 0 59389 36000.00000 0 -3601637.117 16509303.347 19125058.603 10 0 59389 36900.00000 0 -4957062.431 18298020.329 17096247.806 10 0 59389 37800.00000 0 -6010269.547 19968723.284 14736137.998 10 0 59389 38700.00000 0 -6765187.403 21457007.259 12090679.254 10 0 59389 39600.00000 0 -7238458.577 22702593.142 9211260.064 10 0 59389 40500.00000 0 -7458465.931 23651825.461 6153709.214 10 0 59389 41400.00000 0 -7463874.183 24259908.909 2977218.769 10 0 59389 42300.00000 0 -7301749.517 24492792.153 -256791.415 10 0 59389 43200.00000 0 -7025337.272 24328622.240 -3485846.599 10 0 59389 44100.00000 0 -6691591.244 23758710.646 -6647606.093 10 0 59389 45000.00000 0 -6358557.834 22787971.962 -9681046.678 10 0 59389 45900.00000 0 -6082723.842 21434817.641 -12527619.444 10 0 59389 46800.00000 0 -5916437.887 19730509.225 -15132359.547 10 0 59389 47700.00000 0 -5905512.261 17717997.207 -17444929.261 10 0 59389 48600.00000 0 -6087104.657 15450292.384 -19420575.904 10 0 59389 49500.00000 0 -6487967.933 12988435.217 -21020987.669 10 0 59389 50400.00000 0 -7123141.275 10399145.117 -22215031.820 10 0 59389 51300.00000 0 -7995138.443 7752244.444 -22979361.659 10 0 59389 52200.00000 0 -9093668.845 5117961.407 -23298880.538 10 0 59389 53100.00000 0 -10395905.592 2564221.460 -23167053.335 10 0 59389 54000.00000 0 -11867292.478 154037.700 -22586058.152 10 0 59389 54900.00000 0 -13462859.626 -2056892.572 -21566773.498 10 0 59389 55800.00000 0 -15128996.226 -4022285.523 -20128598.943 10 0 59389 56700.00000 0 -16805609.368 -5706975.082 -18299110.179 10 0 59389 57600.00000 0 -18428581.094 -7088151.749 -16113552.500 10 0 59389 58500.00000 0 -19932422.234 -8156082.596 -13614180.070 10 0 59389 59400.00000 0 -21253012.197 -8914280.618 -10849451.679 10 0 59389 60300.00000 0 -22330309.022 -9379114.704 -7873097.046 10 0 59389 61200.00000 0 -23110913.999 -9578875.265 -4743071.095 10 0 59389 62100.00000 0 -23550380.405 -9552334.314 -1520416.604 10 0 59389 63000.00000 0 -23615166.034 -9346860.937 1731941.806 10 0 59389 63900.00000 0 -23284143.977 -9016172.867 4950447.046 10 0 59389 64800.00000 0 -22549604.978 -8617821.272 8072175.772 10 0 59389 65700.00000 0 -21417706.653 -8210517.922 11036094.083 10 0 59389 66600.00000 0 -19908349.079 -7851421.013 13784275.380 10 0 59389 67500.00000 0 -18054481.355 -7593497.902 16263054.043 10 0 59389 68400.00000 0 -15900868.674 -7483079.426 18424090.212 10 0 59389 69300.00000 0 -13502372.965 -7557711.798 20225323.190 10 0 59389 70200.00000 0 -10921821.104 -7844398.696 21631793.998 10 0 59389 71100.00000 0 -8227552.107 -8358308.629 22616320.903 10 0 59389 72000.00000 0 -5490748.104 -9102002.054 23160015.291 10 0 59389 72900.00000 0 -2782662.290 -10065209.913 23252629.132 10 0 59389 73800.00000 0 -171860.486 -11225171.342 22892729.012 10 0 59389 74700.00000 0 2278408.429 -12547514.347 22087695.438 10 0 59389 75600.00000 0 4512604.612 -13987640.314 20853549.686 10 0 59389 76500.00000 0 6484954.075 -15492552.257 19214613.776 10 0 59389 77400.00000 0 8161087.223 -17003048.433 17203012.238 10 0 59389 78300.00000 0 9519194.250 -18456188.292 14858027.116 10 0 59389 79200.00000 0 10550653.021 -19787927.016 12225320.042 10 0 59389 80100.00000 0 11260107.074 -20935808.500 9356037.465 10 0 59389 81000.00000 0 11664994.189 -21841604.913 6305816.809 10 0 59389 81900.00000 0 11794548.449 -22453793.729 3133712.752 10 0 59389 82800.00000 0 11688320.039 -22729770.277 -98935.948 10 0 59389 83700.00000 0 11394276.467 -22637705.100 -3329678.079 10 0 59389 84600.00000 0 10966565.617 -22157970.166 -6496138.662 10 0 59389 85500.00000 0 10463034.364 -21284075.712 -9537203.140 10 0 59390 0.00000 0 9942606.085 -20023079.511 -12394175.933 10 0 59390 900.00000 0 9462626.079 -18395451.192 -15011893.168 10 0 59390 1800.00000 0 9076283.959 -16434397.824 -17339769.042 10 0 59390 2700.00000 0 8830221.054 -14184675.683 -19332758.484 10 0 59390 3600.00000 0 8762420.407 -11700937.205 -20952218.242 10 0 59390 4500.00000 0 8900468.301 -9045678.222 -22166651.100 10 0 59390 5400.00000 0 9260259.767 -6286868.146 -22952319.505 10 0 59390 6300.00000 0 9845203.409 -3495358.276 -23293716.777 10 0 59390 7200.00000 0 10645960.626 -742173.002 -23183886.216 10 0 59390 8100.00000 0 11640732.681 1904206.138 -22624580.728 10 0 59390 9000.00000 0 12796086.682 4380452.576 -21626258.110 10 0 59390 9900.00000 0 14068289.143 6630795.374 -20207909.827 10 0 59390 10800.00000 0 15405094.450 8609108.716 -18396724.058 10 0 59390 11700.00000 0 16747915.973 10280602.544 -16227586.868 10 0 59390 12600.00000 0 18034290.656 11623042.387 -13742428.721 10 0 59390 13500.00000 0 19200534.532 12627445.744 -10989426.870 10 0 59390 14400.00000 0 20184477.380 13298224.010 -8022077.527 10 0 59390 15300.00000 0 20928160.110 13652762.387 -4898155.128 10 0 59390 16200.00000 0 21380379.054 13720454.393 -1678578.922 10 0 59390 17100.00000 0 21498966.928 13541231.342 1573790.228 10 0 59390 18000.00000 0 21252710.946 13163649.414 4795397.664 10 0 59390 18900.00000 0 20622823.834 12642616.602 7923260.858 10 0 59390 19800.00000 0 19603902.754 12036857.994 10896226.177 10 0 59390 20700.00000 0 18204333.449 11406229.439 13656189.117 10 0 59390 21600.00000 0 16446121.210 10808996.480 16149251.623 10 0 59390 22500.00000 0 14364155.397 10299196.776 18326791.694 10 0 59390 23400.00000 0 12004938.994 9924200.265 20146422.672 10 0 59390 24300.00000 0 9424837.852 9722572.253 21572822.564 10 0 59390 25200.00000 0 6687924.758 9722330.836 22578417.089 10 0 59390 26100.00000 0 3863510.591 9939672.382 23143903.600 10 0 59390 27000.00000 0 1023467.497 10378218.082 23258606.957 10 0 59390 27900.00000 0 -1760542.929 11028811.792 22920662.136 10 0 59390 28800.00000 0 -4419820.267 11869875.565 22137022.085 10 0 59390 29700.00000 0 -6891240.458 12868305.514 20923292.937 10 0 59390 30600.00000 0 -9119628.014 13980867.982 19303402.001 10 0 59390 31500.00000 0 -11059788.544 15156035.185 17309107.046 10 0 59390 32400.00000 0 -12678119.972 16336181.576 14979358.179 10 0 59390 33300.00000 0 -13953738.808 17460047.732 12359526.073 10 0 59390 34200.00000 0 -14879078.160 18465367.995 9500512.468 10 0 59390 35100.00000 0 -15459936.323 19291551.990 6457760.689 10 0 59390 36000.00000 0 -15714977.277 19882308.532 3290185.304 10 0 59390 36900.00000 0 -15674706.800 20188103.294 59041.285 10 0 59390 37800.00000 0 -15379969.147 20168348.896 -3173246.314 10 0 59390 38700.00000 0 -14880028.500 19793237.342 -6344270.769 10 0 59390 39600.00000 0 -14230315.920 19045139.546 -9392828.643 10 0 59390 40500.00000 0 -13489935.825 17919514.414 -12260080.131 10 0 59390 41400.00000 0 -12719035.459 16425289.838 -14890664.277 10 0 59390 42300.00000 0 -11976146.093 14584699.334 -17233749.276 10 0 59390 43200.00000 0 -11315605.763 12432579.933 -19243999.417 10 0 59390 44100.00000 0 -10785169.938 10015158.548 -20882441.486 10 0 59390 45000.00000 0 -10423909.090 7388374.740 -22117214.996 10 0 59390 45900.00000 0 -10260480.596 4615806.454 -22924192.459 10 0 59390 46800.00000 0 -10311847.588 1766281.543 -23287457.779 10 0 59390 47700.00000 0 -10582499.390 -1088728.971 -23199632.953 10 0 59390 48600.00000 0 -11064208.043 -3877830.613 -22662045.612 10 0 59390 49500.00000 0 -11736333.578 -6532427.622 -21684732.387 10 0 59390 50400.00000 0 -12566668.163 -8989335.882 -20286275.796 10 0 59390 51300.00000 0 -13512786.695 -11193178.690 -18493475.295 10 0 59390 52200.00000 0 -14523849.990 -13098465.342 -16340856.182 10 0 59390 53100.00000 0 -15542786.968 -14671264.765 -13870023.402 10 0 59390 54000.00000 0 -16508765.501 -15890402.675 -11128870.646 10 0 59390 54900.00000 0 -17359848.216 -16748130.281 -8170658.459 10 0 59390 55800.00000 0 -18035720.585 -17250234.524 -5052978.530 10 0 59390 56700.00000 0 -18480374.428 -17415583.753 -1836624.253 10 0 59390 57600.00000 0 -18644630.896 -17275127.081 1415609.652 10 0 59390 58500.00000 0 -18488393.163 -16870389.538 4640173.396 10 0 59390 59400.00000 0 -17982530.231 -16251527.447 7774027.771 10 0 59390 60300.00000 0 -17110309.015 -15475027.964 10755901.969 10 0 59390 61200.00000 0 -15868311.479 -14601152.494 13527516.140 10 0 59390 62100.00000 0 -14266796.159 -13691235.039 16034742.300 10 0 59390 63000.00000 0 -12329487.706 -12804952.762 18228678.680 10 0 59390 63900.00000 0 -10092803.234 -11997686.947 20066614.797 10 0 59390 64800.00000 0 -7604548.675 -11318088.129 21512867.490 10 0 59390 65700.00000 0 -4922141.155 -10805949.600 22539471.399 10 0 59390 66600.00000 0 -2110433.603 -10490479.537 23126710.918 10 0 59390 67500.00000 0 760765.690 -10389044.071 23263484.461 10 0 59390 68400.00000 0 3619373.584 -10506432.830 22947495.652 10 0 59390 69300.00000 0 6393799.866 -10834675.770 22185269.770 10 0 59390 70200.00000 0 9015686.853 -11353416.376 20991997.360 10 0 59390 71100.00000 0 11422507.488 -12030822.796 19391210.259 10 0 59390 72000.00000 0 13559915.271 -12824995.928 17414298.416 10 0 59390 72900.00000 0 15383750.635 -13685813.001 15099878.662 10 0 59390 73800.00000 0 16861623.268 -14557127.495 12493029.054 10 0 59390 74700.00000 0 17974007.785 -15379231.940 9644404.673 10 0 59390 75600.00000 0 18714810.705 -16091479.896 6609252.499 10 0 59390 76500.00000 0 19091388.475 -16634957.409 3446344.473 10 0 59390 77400.00000 0 19124018.776 -16955092.783 216849.052 10 0 59390 78300.00000 0 18844849.660 -17004096.529 -3016837.728 10 0 59390 79200.00000 0 18296372.041 -16743130.699 -6192280.329 10 0 59390 80100.00000 0 17529480.278 -16144118.145 -9248189.336 10 0 59390 81000.00000 0 16601201.929 -15191117.061 -12125583.493 10 0 59390 81900.00000 0 15572190.939 -13881203.908 -14768907.576 10 0 59390 82800.00000 0 14504087.816 -12224827.690 -17127086.279 10 0 59390 83700.00000 0 13456855.591 -10245619.905 -19154495.591 10 0 59390 84600.00000 0 12486201.247 -7979666.286 -20811834.436 10 0 59390 85500.00000 0 11641188.946 -5474268.251 -22066880.862 10 0 59391 0.00000 0 10962143.692 -2786242.487 -22895118.886 10 0 59391 900.00000 0 10478932.957 20174.397 -23280224.047 10 0 59391 1800.00000 0 10209697.450 2875731.901 -23214397.650 10 0 59391 2700.00000 0 10160087.014 5708786.621 -22698542.196 10 0 59391 3600.00000 0 10323033.444 8448031.672 -21742272.860 10 0 59391 4500.00000 0 10679073.561 11025223.268 -20363762.497 10 0 59391 5400.00000 0 11197210.997 13377792.306 -18589420.718 10 0 59391 6300.00000 0 11836283.345 15451232.467 -16453410.539 10 0 59391 7200.00000 0 12546779.529 17201164.495 -13997009.516 10 0 59391 8100.00000 0 13273032.515 18594989.008 -11267825.546 10 0 59391 9000.00000 0 13955695.816 19613056.807 -8318880.948 10 0 59391 9900.00000 0 14534398.974 20249305.419 -5207581.826 10 0 59391 10800.00000 0 14950468.642 20511333.281 -1994592.655 10 0 59391 11700.00000 0 15149597.956 20419906.995 1257361.200 10 0 59391 12600.00000 0 15084348.372 20007921.709 4484738.071 10 0 59391 13500.00000 0 14716374.787 19318858.706 7624445.279 10 0 59391 14400.00000 0 14018276.377 18404806.486 10615097.897 10 0 59391 15300.00000 0 12974991.830 17324130.874 13398243.580 10 0 59391 16200.00000 0 11584677.524 16138895.228 15919527.005 10 0 59391 17100.00000 0 9859029.860 14912142.573 18129768.923 10 0 59391 18000.00000 0 7823037.470 13705157.347 19985937.004 10 0 59391 18900.00000 0 5514173.794 12574824.745 21451988.542 10 0 59391 19800.00000 0 2981064.800 11571200.816 22499568.359 10 0 59391 20700.00000 0 281689.167 10735396.571 23108548.735 10 0 59391 21600.00000 0 -2518812.147 10097865.049 23267402.031 10 0 59391 22500.00000 0 -5350623.895 9677162.248 22973400.428 10 0 59391 23400.00000 0 -8141936.958 9479232.033 22232640.922 10 0 59391 24300.00000 0 -10821708.910 9497242.390 21059897.323 10 0 59391 25200.00000 0 -13322389.926 9711976.856 19478304.341 10 0 59391 26100.00000 0 -15582501.414 10092761.597 17518881.981 10 0 59391 27000.00000 0 -17548961.897 10598886.279 15219911.284 10 0 59391 27900.00000 0 -19179065.776 11181456.648 12626174.910 10 0 59391 28800.00000 0 -20442035.488 11785599.221 9788078.327 10 0 59391 29700.00000 0 -21320085.694 12352924.473 6760669.177 10 0 59391 30600.00000 0 -21808958.394 12824144.777 3602573.820 10 0 59391 31500.00000 0 -21917909.648 13141737.591 374871.358 10 0 59391 32400.00000 0 -21669151.041 13252543.013 -2860073.901 10 0 59391 33300.00000 0 -21096771.104 13110187.981 -6039800.161 10 0 59391 34200.00000 0 -20245182.878 12677236.838 -9102934.437 10 0 59391 35100.00000 0 -19167162.766 11926979.311 -11990356.280 10 0 59391 36000.00000 0 -17921562.200 10844781.868 -14646318.271 10 0 59391 36900.00000 0 -16570786.539 9428946.119 -17019503.458 10 0 59391 37800.00000 0 -15178144.975 7691037.837 -19064001.133 10 0 59391 38700.00000 0 -13805180.200 5655671.426 -20740183.663 10 0 59391 39600.00000 0 -12509087.571 3359756.653 -22015468.601 10 0 59391 40500.00000 0 -11340329.953 851236.070 -22864952.101 10 0 59391 41400.00000 0 -10340546.730 -1812637.845 -23271901.569 10 0 59391 42300.00000 0 -9540844.013 -4567417.767 -23228097.496 10 0 59391 43200.00000 0 -8960537.796 -7343884.626 -22734016.789 10 0 59391 44100.00000 0 -8606403.775 -10070681.281 -21798852.304 10 0 59391 45000.00000 0 -8472466.998 -12677049.814 -20440366.024 10 0 59391 45900.00000 0 -8540342.398 -15095560.336 -18684576.172 10 0 59391 46800.00000 0 -8780114.288 -17264718.406 -16565281.680 10 0 59391 47700.00000 0 -9151720.163 -19131342.016 -14123430.681 10 0 59391 48600.00000 0 -9606782.372 -20652607.687 -11406343.117 10 0 59391 49500.00000 0 -10090811.533 -21797678.276 -8466800.860 10 0 59391 50400.00000 0 -10545688.905 -22548841.929 -5362022.172 10 0 59391 51300.00000 0 -10912321.936 -22902112.162 -2152540.391 10 0 59391 52200.00000 0 -11133358.868 -22867261.843 1098990.666 10 0 59391 53100.00000 0 -11155844.858 -22467288.318 4329039.629 10 0 59391 54000.00000 0 -10933703.941 -21737331.738 7474462.525 10 0 59391 54900.00000 0 -10429938.317 -20723092.707 10473762.488 10 0 59391 55800.00000 0 -9618448.579 -19478817.383 13268316.853 10 0 59391 56700.00000 0 -8485394.995 -18064937.265 15803545.088 10 0 59391 57600.00000 0 -7030040.157 -16545465.881 18029992.502 10 0 59391 58500.00000 0 -5265036.139 -14985264.996 19904306.776 10 0 59391 59400.00000 0 -3216143.637 -13447298.192 21390087.294 10 0 59391 60300.00000 0 -921395.259 -11989989.509 22458590.395 10 0 59391 61200.00000 0 1570260.802 -10664799.586 23089277.254 10 0 59391 62100.00000 0 4200778.448 -9514121.478 23270194.838 10 0 59391 63000.00000 0 6905215.153 -8569583.727 22998184.195 10 0 59391 63900.00000 0 9614223.765 -7850830.254 22278914.014 10 0 59391 64800.00000 0 12256729.764 -7364825.659 21126741.028 10 0 59391 65700.00000 0 14762682.046 -7105711.940 19564402.178 10 0 59391 66600.00000 0 17065762.934 -7055219.268 17622546.602 10 0 59391 67500.00000 0 19105945.790 -7183610.193 15339118.339 10 0 59391 68400.00000 0 20831795.579 -7451114.600 12758603.142 10 0 59391 69300.00000 0 22202419.004 -7809792.733 9931155.060 10 0 59391 70200.00000 0 23188985.816 -8205746.240 6911620.274 10 0 59391 71100.00000 0 23775760.931 -8581583.448 3758477.155 10 0 59391 72000.00000 0 23960607.177 -8879035.085 532712.790 10 0 59391 72900.00000 0 23754940.322 -9041611.104 -2703343.082 10 0 59391 73800.00000 0 23183140.287 -9017187.969 -5887205.333 10 0 59391 74700.00000 0 22281444.466 -8760419.116 -8957420.343 10 0 59391 75600.00000 0 21096369.933 -8234868.695 -11854731.302 10 0 59391 76500.00000 0 19682730.108 -7414780.196 -14523201.294 10 0 59391 77400.00000 0 18101327.771 -6286406.441 -16911274.227 10 0 59391 78300.00000 0 16416419.056 -4848845.114 -18972754.991 10 0 59391 79200.00000 0 14693052.328 -3114343.967 -20667691.467 10 0 59391 80100.00000 0 12994390.836 -1108061.142 -21963142.528 10 0 59391 81000.00000 0 11379128.840 1132712.012 -22833817.992 10 0 59391 81900.00000 0 9899107.336 3559836.566 -23262578.344 10 0 59391 82800.00000 0 8597227.872 6116070.157 -23240784.095 10 0 59391 83700.00000 0 7505751.149 8737200.927 -22768486.963 10 0 59391 84600.00000 0 6645051.902 11354486.075 -21854457.466 10 0 59391 85500.00000 0 6022883.326 13897296.533 -20516046.232 99